EN

Hourly Weather Paralia

Today, 26 February, Friday

Time Temperature Precipitation Wind Pressure Humidity
00:00 +10°C° 0 mm 3 mps 758 mmHg 70%
01:00 +10°C° 0 mm 3 mps 758 mmHg 70%
02:00 +10°C° 0 mm 3 mps 758 mmHg 70%
03:00 +10°C° 0 mm 3 mps 758 mmHg 70%
04:00 +9°C° 0 mm 3 mps 757 mmHg 70%
05:00 +10°C° 0 mm 3 mps 757 mmHg 70%
06:00 +10°C° 0 mm 3 mps 757 mmHg 70%
07:00 +10°C° 0 mm 3 mps 757 mmHg 70%
08:00 +12°C° 0 mm 3 mps 757 mmHg 63%
09:00 +16°C° 0 mm 2 mps 757 mmHg 56%
10:00 +18°C° 0 mm 2 mps 757 mmHg 49%
11:00 +19°C° 0 mm 2 mps 757 mmHg 49%
12:00 +19°C° 0 mm 2 mps 756 mmHg 48%
13:00 +20°C° 0 mm 2 mps 756 mmHg 47%
14:00 +19°C° 0 mm 2 mps 755 mmHg 51%
15:00 +19°C° 0 mm 2 mps 755 mmHg 55%
16:00 +18°C° 0 mm 2 mps 755 mmHg 60%
17:00 +16°C° 0 mm 1 mps 755 mmHg 66%
18:00 +14°C° 0 mm 1 mps 754 mmHg 72%
19:00 +12°C° 0 mm 0 mps 754 mmHg 78%
20:00 +13°C° 0 mm 1 mps 754 mmHg 76%
21:00 +12°C° 0 mm 1 mps 754 mmHg 75%
22:00 +12°C° 0 mm 1 mps 754 mmHg 73%
23:00 +12°C° 0 mm 1 mps 754 mmHg 72%

Tomorrow, 27 February, Saturday

Time Temperature Precipitation Wind Pressure Humidity
00:00 +12°C° 0 mm 1 mps 754 mmHg 72%
01:00 +12°C° 0 mm 1 mps 753 mmHg 71%
02:00 +11°C° 0 mm 1 mps 753 mmHg 71%
03:00 +11°C° 0 mm 1 mps 753 mmHg 72%
04:00 +11°C° 0 mm 1 mps 752 mmHg 73%
05:00 +11°C° 0 mm 1 mps 752 mmHg 73%
06:00 +12°C° 0 mm 1 mps 752 mmHg 73%
07:00 +12°C° 0 mm 1 mps 752 mmHg 73%
08:00 +14°C° 0 mm 1 mps 752 mmHg 67%
09:00 +16°C° 0 mm 1 mps 752 mmHg 62%
10:00 +19°C° 0 mm 1 mps 752 mmHg 56%
11:00 +20°C° 0 mm 1 mps 751 mmHg 56%
12:00 +19°C° 0 mm 2 mps 751 mmHg 55%
13:00 +20°C° 0 mm 2 mps 750 mmHg 54%
14:00 +19°C° 0 mm 2 mps 750 mmHg 59%
15:00 +18°C° 0 mm 2 mps 750 mmHg 64%
16:00 +17°C° 0 mm 2 mps 750 mmHg 68%
17:00 +16°C° 0 mm 2 mps 750 mmHg 76%
18:00 +14°C° 0 mm 2 mps 750 mmHg 83%
19:00 +13°C° 0 mm 1 mps 750 mmHg 91%
20:00 +12°C° 0 mm 1 mps 750 mmHg 90%
21:00 +12°C° 0 mm 1 mps 750 mmHg 89%
22:00 +12°C° 0 mm 1 mps 751 mmHg 89%
23:00 +12°C° 0 mm 1 mps 751 mmHg 88%

Day after tomorrow, 28 February, Sunday

Time Temperature Precipitation Wind Pressure Humidity
00:00 +12°C° 0 mm 1 mps 750 mmHg 87%
01:00 +12°C° 0 mm 1 mps 750 mmHg 86%
02:00 +12°C° 0 mm 1 mps 750 mmHg 85%
03:00 +12°C° 0 mm 1 mps 750 mmHg 85%
04:00 +11°C° 0 mm 1 mps 750 mmHg 85%
05:00 +12°C° 0 mm 1 mps 750 mmHg 84%
06:00 +12°C° 0 mm 1 mps 751 mmHg 83%
07:00 +13°C° 0 mm 2 mps 751 mmHg 82%
08:00 +14°C° 0 mm 2 mps 751 mmHg 76%
09:00 +14°C° 0 mm 3 mps 752 mmHg 71%
10:00 +17°C° 0 mm 3 mps 752 mmHg 66%
11:00 +16°C° 0.1 mm 3 mps 752 mmHg 67%
12:00 +15°C° 0.1 mm 4 mps 752 mmHg 68%
13:00 +15°C° 0.1 mm 4 mps 753 mmHg 70%
14:00 +14°C° 0.3 mm 4 mps 753 mmHg 73%
15:00 +13°C° 0.3 mm 4 mps 753 mmHg 77%
16:00 +13°C° 0.3 mm 4 mps 753 mmHg 80%
17:00 +12°C° 0.5 mm 4 mps 753 mmHg 83%
18:00 +10°C° 0.5 mm 5 mps 754 mmHg 86%
19:00 +10°C° 0.5 mm 5 mps 754 mmHg 88%
20:00 +9°C° 0.3 mm 5 mps 754 mmHg 88%
21:00 +9°C° 0.3 mm 5 mps 755 mmHg 88%
22:00 +9°C° 0.3 mm 5 mps 755 mmHg 88%
23:00 +9°C° 0.3 mm 5 mps 755 mmHg 88%

1 March, Monday

Time Temperature Precipitation Wind Pressure Humidity
00:00 +8°C° 0.3 mm 5 mps 755 mmHg 89%
01:00 +8°C° 0.3 mm 4 mps 756 mmHg 90%
02:00 +8°C° 0.6 mm 4 mps 755 mmHg 90%
03:00 +8°C° 0.6 mm 4 mps 755 mmHg 89%
04:00 +7°C° 0.6 mm 4 mps 755 mmHg 89%
05:00 +7°C° 0.1 mm 4 mps 756 mmHg 89%
06:00 +7°C° 0.1 mm 4 mps 756 mmHg 89%
07:00 +7°C° 0.1 mm 4 mps 756 mmHg 89%
08:00 +9°C° 0 mm 3 mps 756 mmHg 83%
09:00 +11°C° 0 mm 3 mps 757 mmHg 77%
10:00 +12°C° 0 mm 3 mps 757 mmHg 71%
11:00 +12°C° 0 mm 3 mps 757 mmHg 69%
12:00 +13°C° 0 mm 3 mps 757 mmHg 66%
13:00 +13°C° 0 mm 3 mps 756 mmHg 63%
14:00 +13°C° 0 mm 3 mps 756 mmHg 64%
15:00 +13°C° 0 mm 3 mps 756 mmHg 64%
16:00 +12°C° 0 mm 3 mps 756 mmHg 64%
17:00 +11°C° 0 mm 3 mps 756 mmHg 69%
18:00 +10°C° 0 mm 3 mps 757 mmHg 75%
19:00 +8°C° 0 mm 3 mps 757 mmHg 81%
20:00 +8°C° 0 mm 3 mps 758 mmHg 81%
21:00 +7°C° 0 mm 3 mps 758 mmHg 82%
22:00 +6°C° 0 mm 4 mps 759 mmHg 82%
23:00 +6°C° 0 mm 4 mps 759 mmHg 82%

2 March, Tuesday

Time Temperature Precipitation Wind Pressure Humidity
00:00 +5°C° 0 mm 4 mps 759 mmHg 82%
01:00 +5°C° 0 mm 4 mps 759 mmHg 82%
02:00 +5°C° 0 mm 4 mps 759 mmHg 81%
03:00 +5°C° 0 mm 4 mps 759 mmHg 80%
04:00 +4°C° 0 mm 4 mps 759 mmHg 79%
05:00 +4°C° 0 mm 4 mps 759 mmHg 80%
06:00 +5°C° 0 mm 4 mps 760 mmHg 81%
07:00 +5°C° 0 mm 5 mps 760 mmHg 81%
08:00 +7°C° 0 mm 4 mps 760 mmHg 74%
09:00 +8°C° 0 mm 4 mps 760 mmHg 67%
10:00 +11°C° 0 mm 4 mps 761 mmHg 60%
11:00 +11°C° 0 mm 4 mps 761 mmHg 56%
12:00 +12°C° 0 mm 4 mps 760 mmHg 52%
13:00 +13°C° 0 mm 4 mps 760 mmHg 48%
14:00 +12°C° 0 mm 4 mps 760 mmHg 49%
15:00 +12°C° 0 mm 3 mps 760 mmHg 51%
16:00 +12°C° 0 mm 3 mps 760 mmHg 52%
17:00 +10°C° 0 mm 3 mps 760 mmHg 58%
18:00 +9°C° 0 mm 2 mps 760 mmHg 64%
19:00 +7°C° 0 mm 2 mps 760 mmHg 69%
20:00 +7°C° 0 mm 2 mps 761 mmHg 68%
21:00 +7°C° 0 mm 2 mps 761 mmHg 67%
22:00 +6°C° 0 mm 2 mps 761 mmHg 66%
23:00 +6°C° 0 mm 2 mps 761 mmHg 66%

3 March, Wednesday

Time Temperature Precipitation Wind Pressure Humidity
00:00 +6°C° 0 mm 2 mps 761 mmHg 65%
01:00 +6°C° 0 mm 2 mps 760 mmHg 64%
02:00 +6°C° 0 mm 2 mps 760 mmHg 65%
03:00 +6°C° 0 mm 2 mps 760 mmHg 65%
04:00 +6°C° 0 mm 2 mps 760 mmHg 66%
05:00 +6°C° 0 mm 2 mps 760 mmHg 65%
06:00 +7°C° 0 mm 2 mps 760 mmHg 65%
07:00 +7°C° 0 mm 3 mps 760 mmHg 64%
08:00 +9°C° 0 mm 3 mps 760 mmHg 57%
09:00 +12°C° 0 mm 3 mps 760 mmHg 50%
10:00 +14°C° 0 mm 3 mps 760 mmHg 42%
11:00 +16°C° 0 mm 3 mps 760 mmHg 41%
12:00 +17°C° 0 mm 3 mps 760 mmHg 39%
13:00 +17°C° 0 mm 3 mps 759 mmHg 37%
14:00 +17°C° 0 mm 3 mps 759 mmHg 41%
15:00 +16°C° 0 mm 2 mps 759 mmHg 45%
16:00 +16°C° 0 mm 2 mps 758 mmHg 49%
17:00 +14°C° 0 mm 2 mps 758 mmHg 53%
18:00 +12°C° 0 mm 2 mps 758 mmHg 58%
19:00 +9°C° 0 mm 2 mps 759 mmHg 62%
20:00 +9°C° 0 mm 2 mps 758 mmHg 59%
21:00 +9°C° 0 mm 2 mps 758 mmHg 56%
22:00 +8°C° 0 mm 2 mps 758 mmHg 53%
23:00 +8°C° 0 mm 2 mps 758 mmHg 51%
Show more

We Need Your Consent

Meteoprog and our Service Providers may store and access personal data such as cookies, device identifiers or other similar technologies on your device and process such data to personalise content and ads, as well as provide social media features and to analyse the traffic.

  • Store and/or access information on your device

    Cookies, device identifiers or other information can be stored or accessed on your device for the purposes indicated above.

  • Personalised ads and content, ad and content measurement, audience insights, and products development

    Ads and content can be personalised based on a profile. More data can be added to better personalise ads and content. Ad and content performance can be measured. Insights about the audience who saw the ads and content can be derived. Such data can be used to develop or improve user’s experience, systems and software.

By clicking ‘I Agree’ you will allow the use of indicated cookies, device identifiers, web beacons or other similar technologies. Your settings can be changed in the browser on your device.

For certain purposes, legitimate interests may be relied on, rather than consent. You can read more about this in our Privacy and Cookie Policy.